FW1436 Weather Reports


Display with metric or nautical units.
time (UTC)temp
F
wind
direction
speed
MPH
gust
MPH
rain 1hr
in
rain 24hr
in
rain mn
in
humidity
%
barometer
mb
20260503231533 56 261 0.0 3.0 0.00 0.00 0.00 71 1009.6
20260503230033 57 299 0.0 4.0 0.00 0.00 0.00 70 1009.6
20260503224529 57 257 0.0 3.0 0.00 0.00 0.00 68 1009.6
20260503223028 58 244 1.0 6.0 0.00 0.00 0.00 68 1009.6
20260503221527 58 262 0.0 4.0 0.00 0.00 0.00 68 1009.6
20260503220022 58 274 2.0 7.0 0.00 0.00 0.00 68 1009.6
20260503214520 58 240 0.0 3.0 0.00 0.00 0.00 68 1009.5
20260503213021 59 273 1.0 5.0 0.00 0.00 0.00 67 1009.4
20260503211520 59 217 0.0 4.0 0.00 0.00 0.00 67 1009.3
20260503210020 59 298 1.0 5.0 0.00 0.00 0.00 67 1009.3
20260503204526 59 248 0.0 3.0 0.00 0.00 0.00 67 1009.2
20260503203018 59 269 0.0 3.0 0.00 0.00 0.00 67 1009.0
20260503201617 59 269 0.0 5.0 0.00 0.00 0.00 67 1008.8
20260503200057 60 250 0.0 5.0 0.00 0.00 0.00 66 1008.6
20260503194517 60 318 2.0 6.0 0.00 0.00 0.00 66 1008.5
20260503193034 60 304 2.0 6.0 0.00 0.00 0.00 66 1008.1
20260503191514 61 262 2.0 8.0 0.00 0.00 0.00 66 1008.1
20260503190014 61 233 2.0 7.0 0.00 0.00 0.00 65 1008.0
20260503184520 62 294 3.0 9.0 0.00 0.00 0.00 64 1008.0
20260503183012 62 272 3.0 9.0 0.00 0.00 0.00 63 1007.9
20260503181512 63 71 2.0 5.0 0.00 0.00 0.00 63 1007.9
20260503180017 63 266 4.0 8.0 0.00 0.00 0.00 63 1007.8
20260503174508 63 286 4.0 11.0 0.00 0.00 0.00 62 1007.9
20260503173019 64 312 1.0 11.0 0.00 0.00 0.00 61 1008.1
20260503171519 65 274 5.0 12.0 0.00 0.00 0.00 59 1008.2
20260503140200 66 261 7.0 14.0 0.00 0.00 0.00 56 1008.9
20260503081509 55 101 0.0 0.0 0.00 0.00 0.00 94 1011.3
20260503071507 55 359 0.0 4.0 0.00 0.00 0.00 95 1011.0
20260503060114 0 0.0 0.0 0.00 0.00 0.00 1010.8
20260503054548 52 199 0.0 0.0 0.00 0.00 0.00 95 1010.8
20260503053049 52 113 0.0 0.0 0.00 0.00 0.00 95 1010.8
20260503051551 52 113 0.0 0.0 0.00 0.00 0.00 95 1010.7
20260503050047 52 130 0.0 0.0 0.00 0.00 0.00 95 1010.6
20260503044545 51 134 0.0 0.0 0.00 0.00 0.00 95 1010.7
20260503043045 52 134 0.0 0.0 0.00 0.00 0.00 95 1010.8
20260503041543 52 134 0.0 0.0 0.00 0.00 0.00 95 1010.7
20260503040042 52 134 0.0 0.0 0.00 0.00 0.00 95 1010.7
20260503034539 52 134 0.0 0.0 0.00 0.00 0.00 94 1010.8
20260503033045 52 134 0.0 0.0 0.00 0.00 0.00 95 1011.0
20260503031535 53 134 0.0 0.0 0.00 0.00 0.00 94 1011.1
20260503030034 53 150 0.0 0.0 0.00 0.00 0.00 94 1011.2
20260503024533 53 131 0.0 0.0 0.00 0.00 0.00 94 1011.2
20260503023031 54 123 0.0 0.0 0.00 0.00 0.00 94 1011.2
20260503021531 54 124 0.0 0.0 0.00 0.00 0.00 95 1011.3
20260503020030 54 167 0.0 0.0 0.00 0.00 0.00 95 1011.2
20260503014527 54 167 0.0 0.0 0.00 0.00 0.00 94 1011.2
20260503013033 54 167 0.0 0.0 0.00 0.00 0.00 95 1011.2
20260503011531 54 167 0.0 0.0 0.00 0.00 0.00 94 1011.4
20260503010023 54 167 0.0 0.0 0.00 0.00 0.00 94 1011.5
20260503004522 54 167 0.0 0.0 0.00 0.00 0.00 94 1011.7
20260503003020 55 167 0.0 0.0 0.00 0.00 0.00 94 1011.8
20260503001519 55 167 0.0 0.0 0.00 0.00 0.00 93 1012.0
20260503000018 56 169 0.0 0.0 0.00 0.00 0.00 93 1012.1
20260502234516 56 173 0.0 0.0 0.00 0.00 0.00 92 1011.9
20260502233017 57 144 0.0 1.0 0.00 0.00 0.00 91 1012.0